EW7937 Weather Reports


Display with metric or nautical units.
time (UTC)temp
F
wind
direction
speed
MPH
gust
MPH
rain 1hr
in
rain 24hr
in
rain mn
in
humidity
%
barometer
mb
20260831131930 62 298 0.0 0.0 0.00 0.00 0.00 72 1010.8
20260831131432 62 298 0.0 0.0 0.00 0.00 0.00 71 1010.9
20260831131214 62 298 0.0 0.0 0.00 0.00 0.00 71 1010.8
20260831130434 62 298 0.0 0.0 0.00 0.00 0.00 70 1010.8
20260831125933 62 298 0.0 0.0 0.00 0.00 0.00 69 1010.8
20260831125432 62 298 0.0 0.0 0.00 0.00 0.00 69 1010.8
20260831124931 62 298 0.0 0.0 0.00 0.00 0.00 68 1010.8
20260831124432 63 298 0.0 0.0 0.00 0.00 0.00 68 1010.8
20260831123931 63 298 0.0 0.0 0.00 0.00 0.00 67 1010.8
20260831123433 63 298 0.0 0.0 0.00 0.00 0.00 66 1010.7
20260831123217 63 298 0.0 0.0 0.00 0.00 0.00 66 1010.7
20260831122800 64 298 0.0 0.0 0.00 0.00 0.00 65 1010.6
20260831122452 63 298 0.0 0.0 0.00 0.00 0.00 65 1010.7
20260831121431 64 298 0.0 0.0 0.00 0.00 0.00 65 1010.5
20260831121216 64 298 0.0 0.0 0.00 0.00 0.00 65 1010.6
20260831120519 64 298 0.0 0.0 0.00 0.00 0.00 65 1010.6
20260831120457 64 298 0.0 0.0 0.00 0.00 0.00 66 1010.6
20260831115712 64 298 0.0 0.0 0.00 0.00 0.00 65 1010.6
20260831114932 64 298 0.0 0.0 0.00 0.00 0.00 65 1010.6
20260831114433 64 298 0.0 0.0 0.00 0.00 0.00 64 1010.6
20260831113931 64 298 0.0 0.0 0.00 0.00 0.00 65 1010.6
20260831113431 64 298 0.0 0.0 0.00 0.00 0.00 64 1010.6
20260831112931 65 298 0.0 0.0 0.00 0.00 0.00 64 1010.6
20260831112433 65 298 0.0 0.0 0.00 0.00 0.00 64 1010.6
20260831111935 65 298 0.0 0.0 0.00 0.00 0.00 63 1010.6
20260831111506 65 298 0.0 0.0 0.00 0.00 0.00 63 1010.6
20260831111451 65 298 0.0 0.0 0.00 0.00 0.00 63 1010.6
20260831110434 65 298 0.0 0.0 0.00 0.00 0.00 62 1010.6
20260831105934 66 298 0.0 0.0 0.00 0.00 0.00 62 1010.5
20260831105432 66 298 0.0 0.0 0.00 0.00 0.00 61 1010.6
20260831104920 66 298 0.0 0.0 0.00 0.00 0.00 61 1010.6
20260831104418 66 298 0.0 0.0 0.00 0.00 0.00 61 1010.7
20260831103915 66 298 0.0 0.0 0.00 0.00 0.00 60 1010.6
20260831103411 66 298 0.0 0.0 0.00 0.00 0.00 60 1010.6
20260831102904 67 298 0.0 0.0 0.00 0.00 0.00 60 1010.4
20260831102404 67 298 0.0 0.0 0.00 0.00 0.00 59 1010.4
20260831101904 67 298 0.0 0.0 0.00 0.00 0.00 59 1010.4
20260831101404 67 298 0.0 0.0 0.00 0.00 0.00 59 1010.4
20260831100903 67 298 0.0 0.0 0.00 0.00 0.00 58 1010.4
20260831100433 68 298 0.0 0.0 0.00 0.00 0.00 58 1010.4
20260831100420 67 298 0.0 0.0 0.00 0.00 0.00 58 1010.4
20260831095402 68 298 0.0 0.0 0.00 0.00 0.00 57 1010.4
20260831094903 68 298 0.0 0.0 0.00 0.00 0.00 56 1010.4
20260831094404 68 298 0.0 0.0 0.00 0.00 0.00 56 1010.3
20260831093859 68 298 0.0 1.0 0.00 0.00 0.00 56 1010.1
20260831093353 69 298 0.0 7.0 0.00 0.00 0.00 56 1010.2
20260831092852 69 290 0.0 7.0 0.00 0.00 0.00 55 1010.2
20260831092347 69 294 0.0 1.0 0.00 0.00 0.00 55 1010.2
20260831091849 69 300 0.0 1.0 0.00 0.00 0.00 55 1010.2
20260831091347 69 321 0.0 0.0 0.00 0.00 0.00 55 1010.1
20260831090845 69 321 0.0 0.0 0.00 0.00 0.00 55 1010.2
20260831090336 69 321 0.0 0.0 0.00 0.00 0.00 55 1010.2
20260831085833 69 321 0.0 0.0 0.00 0.00 0.00 54 1010.1
20260831085333 70 321 0.0 1.0 0.00 0.00 0.00 54 1010.1
20260831084833 70 321 0.0 4.0 0.00 0.00 0.00 53 1010.1
20260831084332 70 307 0.0 4.0 0.00 0.00 0.00 53 1010.2
20260831084118 70 309 0.0 0.0 0.00 0.00 0.00 53 1010.2
20260831083333 70 309 0.0 2.0 0.00 0.00 0.00 52 1010.2
20260831082833 70 309 0.0 2.0 0.00 0.00 0.00 52 1010.2
20260831082332 71 309 0.0 0.0 0.00 0.00 0.00 52 1010.2
20260831082116 71 309 0.0 0.0 0.00 0.00 0.00 51 1010.3
20260831081332 71 309 0.0 0.0 0.00 0.00 0.00 51 1010.3
20260831081121 71 309 0.0 0.0 0.00 0.00 0.00 50 1010.3
20260831080334 71 309 0.0 0.0 0.00 0.00 0.00 50 1010.2
20260831075833 72 309 0.0 0.0 0.00 0.00 0.00 49 1010.2
20260831075334 72 309 0.0 0.0 0.00 0.00 0.00 49 1010.3
20260831074833 72 309 0.0 1.0 0.00 0.00 0.00 48 1010.4
20260831074333 72 309 0.0 1.0 0.00 0.00 0.00 48 1010.3
20260831073833 73 306 0.0 0.0 0.00 0.00 0.00 47 1010.3
20260831073329 73 306 0.0 0.0 0.00 0.00 0.00 47 1010.3
20260831072829 73 306 0.0 0.0 0.00 0.00 0.00 46 1010.3
20260831072329 73 306 0.0 0.0 0.00 0.00 0.00 45 1010.2
20260831071826 73 306 0.0 0.0 0.00 0.00 0.00 44 1010.2
20260831071320 74 306 0.0 0.0 0.00 0.00 0.00 44 1010.3
20260831070821 74 306 0.0 0.0 0.00 0.00 0.00 44 1010.2
20260831070427 74 306 0.0 0.0 0.00 0.00 0.00 42 1010.3
20260831070420 75 306 0.0 0.0 0.00 0.00 0.00 42 1010.3
20260831070357 74 306 0.0 0.0 0.00 0.00 0.00 43 1010.2
20260831064807 75 306 0.0 0.0 0.00 0.00 0.00 41 1010.2
20260831064305 75 306 0.0 0.0 0.00 0.00 0.00 41 1010.2
20260831063803 76 306 0.0 0.0 0.00 0.00 0.00 40 1010.1
20260831063304 76 306 0.0 0.0 0.00 0.00 0.00 39 1010.1
20260831062801 76 306 0.0 0.0 0.00 0.00 0.00 38 1010.1
20260831062305 76 306 0.0 0.0 0.00 0.00 0.00 37 1010.1
20260831062051 76 306 0.0 0.0 0.00 0.00 0.00 37 1010.2
20260831061303 77 306 0.0 0.0 0.00 0.00 0.00 36 1010.2
20260831060804 77 306 0.0 0.0 0.00 0.00 0.00 36 1010.2
20260831060304 77 306 0.0 0.0 0.00 0.00 0.00 36 1010.2
20260831055801 78 306 0.0 0.0 0.00 0.00 0.00 36 1010.2
20260831055306 78 306 0.0 0.0 0.00 0.00 0.00 35 1010.1
20260831054803 78 306 0.0 0.0 0.00 0.00 0.00 35 1010.1
20260831054547 78 306 0.0 0.0 0.00 0.00 0.00 35 1010.1
20260831053758 78 306 0.0 0.0 0.00 0.00 0.00 34 1010.1
20260831053333 79 306 0.0 0.0 0.00 0.00 0.00 34 1010.1
20260831053319 78 306 0.0 0.0 0.00 0.00 0.00 34 1010.1
20260831052250 79 306 0.0 0.0 0.00 0.00 0.00 34 1010.1
20260831052026 79 306 0.0 0.0 0.00 0.00 0.00 34 1010.2
20260831051241 79 306 0.0 0.0 0.00 0.00 0.00 34 1010.2
20260831050733 80 306 0.0 0.0 0.00 0.00 0.00 34 1010.1
20260831050233 80 306 0.0 0.0 0.00 0.00 0.00 34 1010.1
20260831045733 80 306 0.0 0.0 0.00 0.00 0.00 33 1010.1
20260831045233 80 306 0.0 0.0 0.00 0.00 0.00 33 1010.2
20260831044729 81 306 0.0 0.0 0.00 0.00 0.00 33 1010.1
20260831044224 81 306 0.0 0.0 0.00 0.00 0.00 33 1010.1
20260831043719 81 306 0.0 4.0 0.00 0.00 0.00 33 1010.1
20260831043213 81 306 0.0 4.0 0.00 0.00 0.00 32 1010.1
20260831042708 81 282 0.0 0.0 0.00 0.00 0.00 32 1009.9
20260831042442 82 282 0.0 0.0 0.00 0.00 0.00 32 1009.8
20260831041703 82 282 0.0 0.0 0.00 0.00 0.00 33 1009.8
20260831041439 82 282 0.0 0.0 0.00 0.00 0.00 32 1009.8
20260831040703 82 282 0.0 0.0 0.00 0.00 0.00 33 1009.7
20260831040205 82 282 0.0 0.0 0.00 0.00 0.00 33 1009.7
20260831035702 83 282 0.0 0.0 0.00 0.00 0.00 33 1009.7
20260831035202 83 282 0.0 0.0 0.00 0.00 0.00 33 1009.7
20260831034704 83 282 0.0 0.0 0.00 0.00 0.00 34 1009.6
20260831034205 83 282 0.0 0.0 0.00 0.00 0.00 34 1009.6
20260831033948 84 282 0.0 0.0 0.00 0.00 0.00 33 1009.6
20260831033204 84 282 0.0 0.0 0.00 0.00 0.00 34 1009.5
20260831032704 85 282 0.0 0.0 0.00 0.00 0.00 35 1009.5
20260831032441 85 282 0.0 0.0 0.00 0.00 0.00 34 1009.5
20260831031703 85 282 0.0 0.0 0.00 0.00 0.00 33 1009.4
20260831031446 85 282 0.0 0.0 0.00 0.00 0.00 33 1009.4
20260831030703 86 282 0.0 0.0 0.00 0.00 0.00 33 1009.2
20260831030450 86 282 0.0 0.0 0.00 0.00 0.00 32 1009.1
20260831025703 86 282 0.0 0.0 0.00 0.00 0.00 32 1009.1
20260831025203 87 282 0.0 0.0 0.00 0.00 0.00 33 1009.1
20260831024703 87 282 0.0 0.0 0.00 0.00 0.00 32 1009.1
20260831024203 87 282 0.0 0.0 0.00 0.00 0.00 32 1009.0
20260831023703 87 282 0.0 0.0 0.00 0.00 0.00 33 1009.0
20260831023201 88 282 0.0 0.0 0.00 0.00 0.00 33 1008.9
20260831022720 89 282 0.0 0.0 0.00 0.00 0.00 32 1008.9
20260831022709 88 282 0.0 0.0 0.00 0.00 0.00 32 1008.9
20260831021704 89 282 0.0 0.0 0.00 0.00 0.00 32 1008.9
20260831021203 90 282 0.0 0.0 0.00 0.00 0.00 31 1008.8
20260831020703 90 282 0.0 0.0 0.00 0.00 0.00 30 1008.9
20260831020203 90 282 0.0 0.0 0.00 0.00 0.00 30 1008.8
20260831015703 91 282 0.0 0.0 0.00 0.00 0.00 30 1008.8
20260831015205 91 282 0.0 0.0 0.00 0.00 0.00 29 1008.8
20260831014705 92 282 0.0 0.0 0.00 0.00 0.00 29 1008.9
20260831014446 92 282 0.0 0.0 0.00 0.00 0.00 29 1008.8
20260831013705 92 282 0.0 0.0 0.00 0.00 0.00 29 1008.8
20260831013205 93 282 0.0 0.0 0.00 0.00 0.00 28 1008.9
20260831012702 93 282 0.0 0.0 0.00 0.00 0.00 28 1008.9
20260831012204 93 282 0.0 0.0 0.00 0.00 0.00 28 1008.9
20260831011704 94 282 0.0 0.0 0.00 0.00 0.00 28 1008.9
20260831011206 94 282 0.0 0.0 0.00 0.00 0.00 28 1009.1
20260831010702 94 282 0.0 0.0 0.00 0.00 0.00 27 1009.0
20260831010204 94 282 0.0 0.0 0.00 0.00 0.00 27 1009.0
20260831005704 95 282 0.0 0.0 0.00 0.00 0.00 27 1009.1
20260831005203 95 282 0.0 0.0 0.00 0.00 0.00 26 1009.1
20260831004704 95 282 0.0 0.0 0.00 0.00 0.00 27 1009.2
20260831004202 95 282 0.0 0.0 0.00 0.00 0.00 27 1009.2
20260831003704 95 282 0.0 0.0 0.00 0.00 0.00 28 1009.3
20260831003201 95 282 0.0 0.0 0.00 0.00 0.00 25 1009.2
20260831002657 95 282 0.0 0.0 0.00 0.00 0.00 27 1009.2
20260831002153 95 282 0.0 0.0 0.00 0.00 0.00 25 1009.3
20260831001649 95 282 0.0 0.0 0.00 0.00 0.00 26 1009.3
20260831001142 96 282 0.0 0.0 0.00 0.00 0.00 26 1009.3
20260831000640 96 282 0.0 0.0 0.00 0.00 0.00 24 1009.3
20260831000139 96 282 0.0 0.0 0.00 0.00 0.00 26 1009.4
20260830235640 96 282 0.0 0.0 0.00 0.00 0.00 26 1009.4
20260830235136 96 282 0.0 0.0 0.00 0.00 0.00 25 1009.4
20260830234635 96 282 0.0 0.0 0.00 0.00 0.00 25 1009.4
20260830234134 97 282 0.0 0.0 0.00 0.00 0.00 24 1009.4
20260830233632 97 282 0.0 0.0 0.00 0.00 0.00 25 1009.4
20260830233133 97 282 0.0 0.0 0.00 0.00 0.00 24 1009.4
20260830232912 97 282 0.0 0.0 0.00 0.00 0.00 25 1009.5
20260830232132 97 282 0.0 0.0 0.00 0.00 0.00 24 1009.5
20260830231634 97 282 0.0 0.0 0.00 0.00 0.00 24 1009.5
20260830231134 97 282 0.0 0.0 0.00 0.00 0.00 23 1009.6
20260830230634 97 282 0.0 0.0 0.00 0.00 0.00 24 1009.6
20260830230133 97 282 0.0 0.0 0.00 0.00 0.00 25 1009.6
20260830225633 97 282 0.0 0.0 0.00 0.00 0.00 24 1009.8
20260830225132 97 282 0.0 0.0 0.00 0.00 0.00 24 1009.8
20260830224633 97 282 0.0 0.0 0.00 0.00 0.00 25 1010.0
20260830224132 97 282 0.0 0.0 0.00 0.00 0.00 24 1010.1
20260830223631 97 282 0.0 0.0 0.00 0.00 0.00 23 1010.3
20260830223127 97 282 0.0 0.0 0.00 0.00 0.00 25 1010.3
20260830222622 97 282 0.0 0.0 0.00 0.00 0.00 23 1010.4
20260830222118 97 282 0.0 0.0 0.00 0.00 0.00 25 1010.4
20260830221613 97 282 0.0 0.0 0.00 0.00 0.00 24 1010.4
20260830221352 97 282 0.0 0.0 0.00 0.00 0.00 25 1010.4
20260830220602 97 282 0.0 0.0 0.00 0.00 0.00 23 1010.6
20260830220104 96 282 0.0 0.0 0.00 0.00 0.00 25 1010.7
20260830215604 97 282 0.0 0.0 0.00 0.00 0.00 26 1010.7
20260830215104 97 282 0.0 0.0 0.00 0.00 0.00 26 1010.8
20260830214602 97 282 0.0 0.0 0.00 0.00 0.00 25 1010.9
20260830214102 97 282 0.0 0.0 0.00 0.00 0.00 26 1011.0
20260830213604 97 282 0.0 0.0 0.00 0.00 0.00 25 1011.1
20260830213054 96 282 0.0 0.0 0.00 0.00 0.00 26 1011.1
20260830212549 95 282 0.0 0.0 0.00 0.00 0.00 29 1011.3
20260830212044 95 282 0.0 0.0 0.00 0.00 0.00 29 1011.3
20260830211540 95 282 0.0 0.0 0.00 0.00 0.00 28 1011.3
20260830211037 95 282 0.0 3.0 0.00 0.00 0.00 29 1011.4
20260830210537 95 282 0.0 3.0 0.00 0.00 0.00 31 1011.4
20260830210038 95 265 0.0 0.0 0.00 0.00 0.00 30 1011.5
20260830205535 95 265 0.0 1.0 0.00 0.00 0.00 30 1011.5
20260830205038 94 265 0.0 1.0 0.00 0.00 0.00 30 1011.6
20260830204532 94 182 0.0 0.0 0.00 0.00 0.00 32 1011.6
20260830204110 94 182 0.0 0.0 0.00 0.00 0.00 31 1011.7
20260830204053 94 182 0.0 0.0 0.00 0.00 0.00 31 1011.6
20260830203032 94 182 0.0 0.0 0.00 0.00 0.00 31 1011.7
20260830202534 93 182 0.0 0.0 0.00 0.00 0.00 30 1011.8
20260830202031 93 182 0.0 0.0 0.00 0.00 0.00 33 1011.9
20260830201531 93 182 0.0 0.0 0.00 0.00 0.00 29 1012.0
20260830201031 93 182 0.0 0.0 0.00 0.00 0.00 33 1012.0
20260830200532 92 182 0.0 0.0 0.00 0.00 0.00 30 1012.0
20260830200032 92 182 0.0 0.0 0.00 0.00 0.00 31 1012.0
20260830195531 92 182 0.0 0.0 0.00 0.00 0.00 32 1012.1
20260830195032 92 182 0.0 0.0 0.00 0.00 0.00 30 1012.2
20260830194531 91 182 0.0 0.0 0.00 0.00 0.00 30 1012.2
20260830194032 91 182 0.0 0.0 0.00 0.00 0.00 33 1012.3
20260830193532 90 182 0.0 0.0 0.00 0.00 0.00 33 1012.3
20260830193032 90 182 0.0 0.0 0.00 0.00 0.00 32 1012.3
20260830192533 90 182 0.0 0.0 0.00 0.00 0.00 31 1012.3
20260830192118 90 182 0.0 0.0 0.00 0.00 0.00 34 1012.4
20260830192058 90 182 0.0 0.0 0.00 0.00 0.00 32 1012.4
20260830191032 90 182 0.0 0.0 0.00 0.00 0.00 35 1012.5
20260830190533 89 182 0.0 0.0 0.00 0.00 0.00 35 1012.7
20260830190032 89 182 0.0 0.0 0.00 0.00 0.00 36 1012.7
20260830185531 89 182 0.0 0.0 0.00 0.00 0.00 36 1012.8
20260830185032 88 182 0.0 0.0 0.00 0.00 0.00 35 1012.9
20260830184528 88 182 0.0 0.0 0.00 0.00 0.00 36 1012.9
20260830184030 87 182 0.0 0.0 0.00 0.00 0.00 37 1013.0
20260830183529 87 182 0.0 0.0 0.00 0.00 0.00 38 1013.0
20260830183027 87 182 0.0 0.0 0.00 0.00 0.00 37 1013.0
20260830182806 87 182 0.0 0.0 0.00 0.00 0.00 39 1013.1
20260830182025 87 182 0.0 0.0 0.00 0.00 0.00 37 1013.0
20260830181518 87 182 0.0 0.0 0.00 0.00 0.00 39 1013.0
20260830181016 87 182 0.0 0.0 0.00 0.00 0.00 38 1013.0
20260830180513 87 182 0.0 0.0 0.00 0.00 0.00 38 1013.0
20260830180012 87 182 0.0 0.0 0.00 0.00 0.00 39 1013.0
20260830175515 86 182 0.0 2.0 0.00 0.00 0.00 39 1013.0
20260830175013 86 182 0.0 2.0 0.00 0.00 0.00 40 1013.1
20260830174757 85 183 0.0 1.0 0.00 0.00 0.00 41 1013.0
20260830174008 85 194 0.0 0.0 0.00 0.00 0.00 40 1013.1
20260830173504 85 194 0.0 0.0 0.00 0.00 0.00 40 1013.0
20260830173007 84 194 0.0 0.0 0.00 0.00 0.00 41 1013.0
20260830172504 84 194 0.0 0.0 0.00 0.00 0.00 40 1013.1
20260830172003 83 194 0.0 1.0 0.00 0.00 0.00 41 1013.0
20260830171503 83 194 0.0 1.0 0.00 0.00 0.00 40 1013.0
20260830171004 83 298 0.0 0.0 0.00 0.00 0.00 40 1013.0
20260830170502 82 298 0.0 0.0 0.00 0.00 0.00 40 1013.0
20260830170004 82 298 0.0 0.0 0.00 0.00 0.00 40 1012.9
20260830165750 81 298 0.0 1.0 0.00 0.00 0.00 42 1013.0
20260830165004 81 298 0.0 1.0 0.00 0.00 0.00 41 1013.0
20260830164503 80 316 0.0 0.0 0.00 0.00 0.00 41 1013.1
20260830164002 79 316 0.0 0.0 0.00 0.00 0.00 41 1013.0
20260830163503 79 316 0.0 0.0 0.00 0.00 0.00 42 1013.1
20260830163001 78 316 0.0 0.0 0.00 0.00 0.00 42 1013.1
20260830162504 77 316 0.0 0.0 0.00 0.00 0.00 42 1013.0
20260830162004 77 316 0.0 0.0 0.00 0.00 0.00 41 1013.0
20260830161504 76 316 0.0 0.0 0.00 0.00 0.00 42 1013.0
20260830160956 76 316 0.0 0.0 0.00 0.00 0.00 43 1013.0
20260830160451 75 316 0.0 0.0 0.00 0.00 0.00 43 1012.9
20260830155946 74 316 0.0 0.0 0.00 0.00 0.00 45 1012.9
20260830155442 74 316 0.0 0.0 0.00 0.00 0.00 46 1012.9
20260830154935 73 316 0.0 0.0 0.00 0.00 0.00 47 1012.8
20260830154433 72 316 0.0 0.0 0.00 0.00 0.00 47 1012.8
20260830153932 71 316 0.0 0.0 0.00 0.00 0.00 47 1012.8
20260830153433 71 316 0.0 0.0 0.00 0.00 0.00 48 1012.8
20260830152931 70 316 0.0 0.0 0.00 0.00 0.00 48 1012.8
20260830152432 69 316 0.0 0.0 0.00 0.00 0.00 49 1012.8
20260830151932 68 316 0.0 0.0 0.00 0.00 0.00 50 1012.8
20260830151431 67 316 0.0 0.0 0.00 0.00 0.00 52 1012.8
20260830150932 67 316 0.0 0.0 0.00 0.00 0.00 53 1012.8
20260830150433 66 316 0.0 0.0 0.00 0.00 0.00 54 1012.9
20260830145935 65 316 0.0 0.0 0.00 0.00 0.00 54 1012.8
20260830145433 65 316 0.0 0.0 0.00 0.00 0.00 55 1012.8
20260830144931 65 316 0.0 0.0 0.00 0.00 0.00 55 1012.6
20260830144427 65 316 0.0 0.0 0.00 0.00 0.00 55 1012.7
20260830143921 64 316 0.0 0.0 0.00 0.00 0.00 55 1012.6
20260830143418 64 316 0.0 0.0 0.00 0.00 0.00 56 1012.6
20260830142920 64 316 0.0 0.0 0.00 0.00 0.00 56 1012.6
20260830142419 64 316 0.0 0.0 0.00 0.00 0.00 56 1012.5
20260830141913 64 316 0.0 0.0 0.00 0.00 0.00 56 1012.5
20260830141701 64 316 0.0 0.0 0.00 0.00 0.00 56 1012.5
20260830140911 64 316 0.0 0.0 0.00 0.00 0.00 56 1012.5
20260830140403 64 316 0.0 0.0 0.00 0.00 0.00 56 1012.3
20260830140151 64 316 0.0 0.0 0.00 0.00 0.00 56 1012.3
20260830135403 64 316 0.0 0.0 0.00 0.00 0.00 56 1012.3
20260830134903 64 316 0.0 0.0 0.00 0.00 0.00 56 1012.1
20260830134405 64 316 0.0 0.0 0.00 0.00 0.00 56 1012.1
20260830133905 64 316 0.0 0.0 0.00 0.00 0.00 56 1012.1
20260830133403 64 316 0.0 0.0 0.00 0.00 0.00 56 1012.0
20260830132903 64 316 0.0 0.0 0.00 0.00 0.00 55 1012.1
20260830132402 64 316 0.0 0.0 0.00 0.00 0.00 55 1012.1